STARLINK-36152

Last updated on Fri Dec 19 2025 00:02:09 GMT+0000 (Coordinated Universal Time)

1 66968U 25288K 25352.58336806 -.01306389 00000+0 -57752-2 0 9995 2 66968 43.0010 131.3743 0001286 275.7117 308.0212 15.86152656 2771
UTC large
Height (km)
Speed (km/s)
/
Latitude / Longitude
Inclination (degrees)
Orbital Period (minutes)
Azimuth
Elevation
Range (km)
Doppler Factor

Next 0 passes for location: London (51.5072 / 0.1276)

Sorry there are no passes over London.